Moses Lake, WA

12:56 PM PDT on May 20, 2018 (GMT -0700)
Grant County International

Weather History for KMWH - November, 2012

Change the Weather History Date:

Friday, November 30, 2012

  Actual Average Record
Temperature  
Mean Temperature 39 °F 32 °F  
Max Temperature 45 °F 39 °F 51 °F (1980)
Min Temperature 33 °F 26 °F -4 °F (1985)
Degree Days  
Heating Degree Days 26 33  
Month to date heating degree days 743 823  
Since 1 July heating degree days 1268 1461  
Cooling Degree Days 0 0  
Month to date cooling degree days 0 0  
Year to date cooling degree days 719 615  
Moisture  
Dew Point 35 °F    
Average Humidity 91    
Maximum Humidity 100    
Minimum Humidity 82    
Precipitation  
Precipitation T in 0.05 in 0.41 in (2010)
Month to date precipitation 1.14 1.20  
Year to date precipitation 7.74 7.67  
Sea Level Pressure  
Sea Level Pressure 29.56 in    
Wind  
Wind Speed 2 mph (SSE)    
Max Wind Speed 10 mph    
Max Gust Speed 13 mph    
Visibility 3 miles    
Events Fog    
T = Trace of Precipitation, MM = Missing Value Source: NWS Daily Summary

Daily Weather History Graph

Daily Weather History Graph

Search for Another Location

Airport or City:

Astronomy

Nov. 30, 2012 Rise Set
Actual Time 7:22 AM PST 4:09 PM PST
Civil Twilight 6:47 AM PST 4:44 PM PST
Nautical Twilight 6:09 AM PST 5:22 PM PST
Astronomical Twilight 5:32 AM PST 5:59 PM PST
Moon 6:09 PM PST (11/30) 8:57 AM PST (11/30)
Length of Visible Light 9h 56m
Length of Day
8h 47m
Waning Gibbous, 96% of the Moon is Illuminated
Nov 30
Waning Gibbous
Dec 6
Last Quarter
Dec 13
New
Dec 19
First Quarter
Dec 28
Full

Hourly Weather History & Observations

Time (PST) Temp. Windchill Dew Point Humidity Pressure Visibility Wind Dir Wind Speed Gust Speed Precip Events Conditions
12:23 AM 37.4 °F 33.8 °F 33.8 °F 87% 29.57 in 2.5 mi East 4.6 mph - N/A   Overcast
12:29 AM 35.6 °F 30.7 °F 33.8 °F 93% 29.56 in 0.8 mi ESE 5.8 mph - N/A   Overcast
12:31 AM 35.6 °F 29.9 °F 33.8 °F 93% 29.55 in 0.8 mi ESE 6.9 mph - N/A   Overcast
12:42 AM 35.6 °F 29.9 °F 33.8 °F 93% 29.54 in 0.2 mi East 6.9 mph - N/A Fog Fog
12:52 AM 36.0 °F - 35.1 °F 97% 29.58 in 0.2 mi Calm Calm - N/A Fog Fog
1:06 AM 35.6 °F 31.7 °F 33.8 °F 93% 29.57 in 0.5 mi WSW 4.6 mph - N/A Fog Fog
1:32 AM 35.6 °F 28.6 °F 35.6 °F 100% 29.60 in 2.0 mi SW 9.2 mph - N/A   Overcast
1:38 AM 35.6 °F 30.7 °F 35.6 °F 100% 29.59 in 0.8 mi SW 5.8 mph - N/A   Overcast
1:52 AM 36.0 °F 31.1 °F 35.1 °F 97% 29.58 in 0.8 mi North 5.8 mph - N/A   Overcast
1:57 AM 35.6 °F - 35.6 °F 100% 29.56 in 1.0 mi Calm Calm - N/A   Overcast
2:01 AM 35.6 °F - 35.6 °F 100% 29.56 in 1.2 mi Calm Calm - N/A   Overcast
2:13 AM 35.6 °F - 35.6 °F 100% 29.56 in 2.0 mi Calm Calm - N/A   Overcast
2:22 AM 35.6 °F - 35.6 °F 100% 29.55 in 1.5 mi Calm Calm - N/A   Overcast
2:35 AM 35.6 °F 32.8 °F 35.6 °F 100% 29.54 in 1.0 mi NNE 3.5 mph - N/A   Overcast
2:37 AM 35.6 °F - 35.6 °F 100% 29.54 in 0.8 mi Calm Calm - N/A   Overcast
2:45 AM 35.6 °F - 35.6 °F 100% 29.54 in 0.8 mi Calm Calm - 0.00 in   Overcast
2:49 AM 35.6 °F - 35.6 °F 100% 29.54 in 0.8 mi Calm Calm - 0.00 in   Overcast
2:52 AM 36.0 °F - 35.1 °F 97% 29.57 in 0.8 mi Calm Calm - 0.00 in   Mist
3:13 AM 35.6 °F 30.7 °F 33.8 °F 93% 29.54 in 0.5 mi SE 5.8 mph - N/A Fog Fog
3:52 AM 36.0 °F - 35.1 °F 97% 29.56 in 0.5 mi Calm Calm - N/A Fog Fog
4:04 AM 35.6 °F - 35.6 °F 100% 29.54 in 1.2 mi Calm Calm - N/A   Overcast
4:25 AM 35.6 °F - 35.6 °F 100% 29.53 in 0.5 mi Calm Calm - N/A Fog Fog
4:44 AM 35.6 °F - 33.8 °F 93% 29.54 in 0.2 mi Calm Calm - N/A Fog Fog
4:52 AM 36.0 °F - 33.1 °F 89% 29.56 in 0.2 mi Calm Calm - N/A Fog Fog
5:52 AM 35.1 °F - 34.0 °F 96% 29.56 in 0.2 mi Calm Calm - N/A Fog Fog
6:44 AM 33.8 °F - 33.8 °F 100% 29.53 in 0.1 mi Calm Calm - N/A Fog Fog
6:52 AM 34.0 °F - 33.1 °F 96% 29.56 in 0.1 mi Calm Calm - N/A Fog Fog
7:14 AM 33.8 °F - 32.0 °F 93% 29.53 in 0.8 mi Calm Calm - N/A   Mist
7:34 AM 33.8 °F - 30.2 °F 87% 29.54 in 2.0 mi Calm Calm - N/A   Overcast
7:42 AM 33.8 °F - 32.0 °F 93% 29.53 in 3.0 mi Calm Calm - N/A   Overcast
7:52 AM 33.1 °F - 32.0 °F 96% 29.56 in 4.0 mi Calm Calm - N/A   Mostly Cloudy
8:06 AM 33.8 °F 30.8 °F 32.0 °F 93% 29.53 in 4.0 mi NW 3.5 mph - N/A   Overcast
8:52 AM 35.1 °F - 34.0 °F 96% 29.58 in 7.0 mi Calm Calm - N/A   Overcast
9:16 AM 35.6 °F - 33.8 °F 93% 29.56 in 8.0 mi Calm Calm - N/A   Overcast
9:27 AM 35.6 °F - 33.8 °F 93% 29.56 in 8.0 mi Calm Calm - N/A   Overcast
9:41 AM 35.6 °F 31.7 °F 33.8 °F 93% 29.56 in 8.0 mi SE 4.6 mph - N/A   Scattered Clouds
9:52 AM 37.0 °F 32.4 °F 35.1 °F 93% 29.59 in 7.0 mi SSE 5.8 mph - N/A   Mostly Cloudy
9:59 AM 37.4 °F 33.8 °F 35.6 °F 93% 29.56 in 8.0 mi SSE 4.6 mph - N/A   Scattered Clouds
10:12 AM 37.4 °F 34.9 °F 35.6 °F 93% 29.57 in 2.5 mi SSE 3.5 mph - N/A   Mostly Cloudy
10:52 AM 37.9 °F 33.5 °F 36.0 °F 93% 29.59 in 2.5 mi South 5.8 mph - N/A   Mostly Cloudy
10:59 AM 37.4 °F 32.8 °F 37.4 °F 100% 29.56 in 1.5 mi South 5.8 mph - N/A   Overcast
11:52 AM 41.0 °F 38.0 °F 37.9 °F 89% 29.58 in 1.0 mi South 4.6 mph - N/A   Mostly Cloudy
11:56 AM 41.0 °F 39.0 °F 37.4 °F 87% 29.55 in 5.0 mi South 3.5 mph - N/A   Mostly Cloudy
12:52 PM 43.0 °F 41.3 °F 37.9 °F 82% 29.59 in 5.0 mi SW 3.5 mph - N/A   Haze
1:52 PM 45.0 °F 42.6 °F 39.9 °F 82% 29.59 in 9.0 mi SSE 4.6 mph - N/A   Clear
2:52 PM 45.0 °F 41.8 °F 39.9 °F 82% 29.60 in 9.0 mi SE 5.8 mph - N/A   Clear
3:52 PM 44.1 °F 41.5 °F 39.0 °F 82% 29.59 in 8.0 mi ESE 4.6 mph - N/A   Clear
4:52 PM 42.1 °F - 39.0 °F 89% 29.59 in 8.0 mi Calm Calm - N/A   Clear
5:52 PM 39.9 °F 36.7 °F 37.0 °F 89% 29.59 in 4.0 mi North 4.6 mph - N/A   Scattered Clouds
6:52 PM 39.9 °F - 37.0 °F 89% 29.58 in 5.0 mi Calm Calm - N/A   Mostly Cloudy
7:52 PM 41.0 °F - 37.9 °F 89% 29.59 in 6.0 mi Calm Calm - N/A   Overcast
8:52 PM 39.9 °F 37.8 °F 37.9 °F 93% 29.57 in 6.0 mi NNW 3.5 mph - N/A   Overcast
9:52 PM 39.9 °F - 37.9 °F 93% 29.57 in 6.0 mi Calm Calm - N/A   Overcast
10:52 PM 39.9 °F 37.8 °F 37.9 °F 93% 29.55 in 6.0 mi ENE 3.5 mph - 0.00 in   Overcast
11:52 PM 42.1 °F 38.4 °F 39.0 °F 89% 29.55 in 10.0 mi South 5.8 mph - N/A   Mostly Cloudy